Regional Weather Roundup
Issued by NWS

Home | Current Version | Previous Version | Graphics & Text | Print | Product List | Glossary On
Versions: 1 2 3 4 5 6 7 8 9 10 11 12 13 14 15 16 17 18 19 20 21 22 23 24 25 26 27 28 29 30 31 32 33 34 35 36 37 38 39 40 41 42 43 44 45 46 47 48 49 50
000
ASUS43 KLOT 222312
RWRIL

ILLINOIS REGIONAL WEATHER ROUNDUP
NATIONAL WEATHER SERVICE CHICAGO/ROMEOVILLE IL
500 PM CST WED FEB 22 2017

NOTE: "FAIR" INDICATES FEW OR NO CLOUDS BELOW 12,000 FEET WITH NO
SIGNIFICANT WEATHER AND/OR OBSTRUCTIONS TO VISIBILITY.

* THESE STATIONS ARE NOT UNDER NWS QUALITY CONTROL. THEY ALSO MAY NOT
  REPORT WEATHER SUCH AS PRECIPITATION OR FOG.

ILZ001-002-007-009-015-016-024-230000-
NORTHWEST ILLINOIS

CITY           SKY/WX    TMP DP  RH WIND       PRES   REMARKS
MOLINE         CLEAR    N/A N/A N/A S14G22    29.58R
STERLING*      CLEAR     66  54  65 S8G17     29.58F
SAVANNA*       CLEAR     67  51  57 S13       29.56R
$$

ILZ003-004-008-010-011-017-018-230000-
NORTH CENTRAL ILLINOIS

CITY           SKY/WX    TMP DP  RH WIND       PRES   REMARKS
ROCKFORD       CLEAR     66  52  60 S21G28    29.58F
FREEPORT*      CLEAR     63  53  70 S21G29    29.56F
ROCHELLE*      CLEAR     64  54  70 S16G22    29.60F
DE KALB*       CLEAR     63  53  70 S21G26    29.62F
PERU*          CLEAR     64  52  66 S17       29.62F
$$

ILZ005-006-012>014-019>023-230000-
NORTHEAST ILLINOIS

CITY           SKY/WX    TMP DP  RH WIND       PRES   REMARKS
CHICAGO-OHARE  CLEAR     67  51  56 S14       29.62F
CHICAGO-MIDWAY PTCLDY    67  53  61 S17G24    29.63F
AURORA         CLEAR     66  53  63 S14       29.62F
LANSING*       CLEAR     64  58  81 S12       29.66F
JOLIET*        CLEAR     67  57  69 S13G18    29.64F
WAUKEGAN       CLEAR     65  51  60 S15G25    29.59F
DUPAGE AIRPORT CLEAR     65  51  60 S14G25    29.62F
KANKAKEE*      CLEAR     65  56  71 S10       29.68F
WHEELING       CLEAR     66  49  54 SW15G23   29.62F
MORRIS*        CLEAR     66  55  69 S13       29.63F
ROMEOVILLE*    CLEAR     65  58  78 SW12G23   29.64F
NORTHERLY ISL    N/A     66  52  60 S18         N/A
$$

LMZ740>746-230000-
SOUTHERN LAKE MICHIGAN

STATION/POSITION SKY/WX   TEMP    WIND        PRES    VSBY  WAVE
                          AIR SEA DIR/SP/G                  HT/PER
                          (F)     (DEG/KT/KT) (MB)    (MI)  (FT/S)
HARRISON CRIB              65     200/ 28/ 30   N/A
BURNHAM HARBOR             65     190/ 14/ 20   N/A
CALUMET HARBOR             65     170/  8/ 14 1003.6F
BURNS HARBOR               64     190/ 14/ 16 1005.4F
MICHIGAN CITY              63     170/ 11/ 15   N/A
$$

ILZ025>027-034>036-040-047-049-050-058-095>099-230000-
WEST-CENTRAL ILLINOIS

CITY           SKY/WX    TMP DP  RH WIND       PRES   REMARKS
QUINCY         CLEAR     63  55  75 S16       29.65S
GALESBURG*     CLEAR     65  55  69 S17G25    29.60F
MACOMB*        CLEAR     67  53  59 S17       29.64F
JACKSONVILLE*  CLOUDY    60  55  82 S12       29.68F
PITTSFIELD*    PTCLDY    62  56  81 S10       29.68F
$$

ILZ028>032-037-038-041>044-048-051>054-059>061-230000-
CENTRAL ILLINOIS

CITY           SKY/WX    TMP DP  RH WIND       PRES   REMARKS
PONTIAC        CLEAR     66  59  77 S20G26    29.67F
BLOOMINGTON    CLEAR     64  55  72 S22       29.68F
DECATUR        CLEAR     67  55  65 SW10      29.71F
PEORIA         CLEAR     64  55  72 S18       29.64F
LACON*         CLEAR     65  54  65 S10       29.62F
LINCOLN*       CLEAR     64  57  77 S9G16     29.69F
SPRINGFIELD    CLOUDY    62  56  80 S13       29.70F
TAYLORVILLE    CLOUDY    66  57  71 SW7       29.71F
$$

ILZ033-039-045-046-055>057-062-063-230000-
EAST-CENTRAL ILLINOIS

CITY           SKY/WX    TMP DP  RH WIND       PRES   REMARKS
CHAMPAIGN      CLEAR     68  53  58 SW15      29.72S
RANTOUL*       CLEAR     69  57  65 SW10      29.71S
MATTOON        PTCLDY    66  57  72 S10       29.73F
PARIS*         CLEAR     66  57  72 S13       29.75F
$$

ILZ079-100>102-230000-
SOUTHWEST ILLINOIS

CITY           SKY/WX    TMP DP  RH WIND       PRES   REMARKS
ALTON          PTCLDY    66  55  68 NW6       29.72S
BELLEVILLE     PTCLDY    72  53  52 VRB6      29.70F
CAHOKIA*       PTCLDY    74  52  46 S9        29.70S
SPARTA*        CLEAR     71  55  56 S10G17    29.75S
$$

ILZ064>066-069>071-074>076-080>082-084>086-088>090-092>094-230000-
SOUTH-CENTRAL ILLINOIS

CITY           SKY/WX    TMP DP  RH WIND       PRES   REMARKS
CARBONDALE     CLEAR     68  55  63 S18       29.77R
CAIRO*         CLEAR     69  58  69 S6        29.79S
EFFINGHAM*     CLOUDY    69  56  63 S7        29.76S
MARION         PTCLDY    72  55  56 S14G20    29.78S
MT. VERNON     CLOUDY    70  55  59 S9        29.76S
CENTRALIA*     CLOUDY    70  57  62 S12       29.74S
SALEM*         CLOUDY    71  54  54 S14       29.75R
METROPOLIS*    CLOUDY    70  57  64 CALM      29.80S
$$

ILZ067-068-072-073-078-083-087-091-230000-
SOUTHEAST ILLINOIS

CITY           SKY/WX    TMP DP  RH WIND       PRES   REMARKS
LAWRENCEVILLE  CLEAR     67  56  67 S14       29.78R
FLORA*         CLEAR     69  56  62 S9        29.76R
FAIRFIELD*     PTCLDY    68  55  63 S5        29.76R
HARRISBURG*    MOCLDY    69  57  65 SW9       29.78S
ROBINSON*      CLEAR     67  55  65 SW13G20   29.78S
CARMI*         PTCLDY    66  57  73 S8        29.78R
$$

ABBREVIATIONS USED IN REMARKS
   TC - TEMPERATURE IN CELSIUS
  WCI - WIND CHILL INDEX
   HX - HEAT INDEX
  VSB - VISIBILITY
$$





USA.gov is the U.S. government's official web portal to all federal, state and local government web resources and services.